Regional Weather Roundup
Issued by NWS

Home | Current Version | Previous Version | Graphics & Text | Print | Product List | Glossary On
Versions: 1 2 3 4 5 6 7 8 9 10 11 12 13 14 15 16 17 18 19 20 21 22 23 24 25 26 27 28
000
ASUS45 KTFX 230210
RWRMT
MONTANA REGIONAL WEATHER ROUNDUP
NATIONAL WEATHER SERVICE GREAT FALLS MT
800 PM MDT THU JUN 22 2017

NOTE: "FAIR" INDICATES FEW OR NO CLOUDS BELOW 12000 FEET WITH NO
SIGNIFICANT WEATHER AND/OR OBSTRUCTIONS TO VISIBILITY.

MTZ001>007-043-230300-
WEST OF THE DIVIDE

CITY           SKY/WX    TMP DP  RH WIND       PRES   REMARKS
KALISPELL      MOSUNNY   69  34  27 SW5       30.17R
MISSOULA       SUNNY     69  31  24 N13       30.17R
BUTTE          SUNNY     62  24  23 N15G22    30.23R
MULLAN PASS    SUNNY     55  28  35 N5        30.29S
ANACONDA         N/A     61  30  31 N9        30.21R
DEER LODGE       N/A     63  30  29 NW8       30.24R
EUREKA           N/A     72  30  21 MISG      30.16S
$$

MTZ008-052>055-230300-
SOUTHWEST MONTANA

CITY           SKY/WX    TMP DP  RH WIND       PRES   REMARKS
BOZEMAN        CLOUDY    60  35  39 N8        30.19R
DILLON         SUNNY     65  28  24 NE15      30.17R
W YELLOWSTONE  SUNNY     63  23  22 NW7G18    30.18R
ENNIS          SUNNY     63  28  27 N16G28    30.23R
THREE FORKS      N/A     63  28  26 N15       30.17R
$$

MTZ009-010-012-014-046-048-049-054-230300-
EAST SLOPES AND CENTRAL MONTANA

CITY           SKY/WX    TMP DP  RH WIND       PRES   REMARKS
CUT BANK       SUNNY     58  39  49 N15       30.23R
GREAT FALLS    SUNNY     58  37  45 NE8       30.24R
MALMSTROM AFB  MOSUNNY   57  39  51 NE7       30.25R
HELENA         SUNNY     63  37  38 N13       30.23R
CHOTEAU          N/A     59  37  44 NE8       30.26R
$$

MTZ011-013-016-021-045-047-050-051-230300-
NORTH CENTRAL MONTANA

CITY           SKY/WX    TMP DP  RH WIND       PRES   REMARKS
HAVRE          CLOUDY    60  34  37 NW16G28   30.19R
LEWISTOWN      MOSUNNY   53  37  54 NW14G20   30.24R
N BAR RANCH      N/A     50  36  57 NW22G32   30.21R
CHINOOK          N/A     57  37  47 NW14G24   30.18R
FORT BENTON      N/A     59  36  41 CALM      30.24S
$$

MTZ017>020-022>027-061-062-230300-
NORTHEAST MONTANA

CITY           SKY/WX    TMP DP  RH WIND       PRES   REMARKS
GLASGOW        CLOUDY    54  45  71 NW22G29   30.09R
JORDAN           N/A     57  42  57 NW24G37   30.11R
SIDNEY         CLOUDY    56  51  84 NW18G30   29.99R
WOLF POINT     CLOUDY    57  46  66 NW16      30.05R
MALTA          MOSUNNY   57  41  54 NW21G30   30.14R
PLENTYWOOD       N/A     52  52 100 NW24G33   29.96R
POPLAR           N/A     57  46  67 W21       30.03R
$$

MTZ028>42-056>058-230300-
SOUTHCENTRAL AND SOUTHEAST MONTANA

CITY           SKY/WX    TMP DP  RH WIND       PRES   REMARKS
BAKER          CLEAR     59  37  44 NW28G44   30.02R
BILLINGS       MOCLDY    63  30  28 N17G26    30.16R
LIVINGSTON     CLOUDY    61  31  32 NE13      30.20R
MILES CITY     CLEAR     61  37  41 N24G36    30.09R
BIG TIMBER     PTSUNNY   55  36  47 NE10      30.25R
FORSYTH          N/A     61  36  39 NW17G29   30.11R
ROUNDUP          N/A     59  32  36 NW21      30.08R
$$

REGIONAL REPORTS...DAKOTAS

CITY           SKY/WX    TMP DP  RH WIND       PRES   REMARKS
WILLISTON      LGT RAIN  57  53  86 NW23G32   29.93R
MINOT          CLOUDY    61  48  62 W23G29    29.80R
DICKINSON      CLEAR     59  37  44 NW25G39   29.92R
BEACH          MOCLDY    55  43  62 NW32G39   30.03R
CROSBY         MOCLDY    55  55 100 NW31G38   29.89R
TIOGA          MOCLDY    55  55 100 NW21      29.90R
WATFORD CITY   MOCLDY    59  48  67 NW16G30   29.92R
BISMARCK       CLEAR     70  34  26 NW20G31   29.84R
GRAND FORKS    MOCLDY    69  43  38 W16       29.68R
FARGO          CLEAR     71  37  28 W10       29.71F
BUFFALO SD       N/A     67  31  26 NW30      29.91R
RAPID CITY     CLEAR     69  34  27 N24G31    29.96R
$$

REGIONAL REPORTS...WYOMING/IDAHO/WASHINGTON

CITY           SKY/WX    TMP DP  RH WIND       PRES   REMARKS
GILLETTE       PTCLDY    65  33  30 N15G26    30.06R
SHERIDAN       CLOUDY    64  33  31 NW15      30.11R
BUFFALO WY     CLEAR     61  32  33 N20G26    30.13R
CODY           CLEAR     61  28  28 N22       30.17R
YELLOWSTONE LA   N/A     56  23  27 NW8G18    30.24R
IDAHO FALLS    SUNNY     74  37  26 S12       30.06R
SALMON         SUNNY     70  27  19 N12       30.12R
BOISE          SUNNY     80  28  15 NW23G29   30.06R
SPOKANE        MOSUNNY   75  27  17 N5        30.19S
$$

REGIONAL REPORTS...ALBERTA

CITY           SKY/WX    TMP DP  RH WIND       PRES   REMARKS
EDMONTON       SUNNY     59  37  44 N13       30.18R
CALGARY        PTSUNNY   59  34  38 N16       30.22R
MEDICINE HAT   PTSUNNY   59  39  47 NW9       30.18R
WATERTON GATE    N/A     55  39  54 NE7         N/A
CARDSTON         N/A     57  39  51 E5          N/A
MILK RIVER       N/A     57  37  47 N14         N/A
$$

REGIONAL REPORTS...SASKATCHEWAN

CITY           SKY/WX    TMP DP  RH WIND       PRES   REMARKS
SWIFT CURRENT  PTSUNNY   52  43  71 NW21G26   30.07R
REGINA         CLOUDY    52  46  82 NW23G29   29.95R
SASKATOON      PTSUNNY   55  39  54 N15G29    30.03R
CYPRESS HILLS    N/A     46  37  71 NW9G18      N/A
VAL MARIE        N/A     54  43  66 NW16G22     N/A
ROCKGLEN         N/A     48  45  87 NW18G25     N/A
$$




USA.gov is the U.S. government's official web portal to all federal, state and local government web resources and services.